TimePDT,TemperatureF,Dew PointF,Humidity,Sea Level PressureIn,VisibilityMPH,Wind Direction,Wind SpeedMPH,Gust SpeedMPH,PrecipitationIn,Events,Conditions,WindDirDegrees,DateUTC
12:54 AM,60.1,57.9,93,29.83,10.0,WSW,4.6,-,N/A,,Clear,240,2013-09-16 07:54:00
1:54 AM,57.9,55.9,93,29.83,10.0,WSW,5.8,-,N/A,,Clear,240,2013-09-16 08:54:00
2:54 AM,57.9,55.9,93,29.83,10.0,WSW,6.9,-,N/A,,Clear,250,2013-09-16 09:54:00
3:54 AM,57.0,55.0,93,29.83,10.0,West,6.9,-,N/A,,Clear,280,2013-09-16 10:54:00
4:51 AM,51.8,51.8,100,29.85,5.0,NNW,4.6,-,N/A,,Scattered Clouds,340,2013-09-16 11:51:00
4:54 AM,53.1,51.1,93,29.83,1.2,NNW,5.8,-,N/A,,Mostly Cloudy,340,2013-09-16 11:54:00
4:57 AM,53.6,51.8,94,29.85,0.5,NNW,4.6,-,N/A,Fog,Fog,340,2013-09-16 11:57:00
5:54 AM,53.1,53.1,100,29.84,0.2,Calm,Calm,-,N/A,Fog,Fog,0,2013-09-16 12:54:00
6:54 AM,55.0,54.0,96,29.85,0.5,Calm,Calm,-,N/A,Fog,Fog,0,2013-09-16 13:54:00
7:05 AM,55.4,53.6,94,29.87,4.0,Calm,Calm,-,N/A,,Mostly Cloudy,0,2013-09-16 14:05:00
7:54 AM,57.9,57.0,97,29.86,6.0,West,3.5,-,N/A,,Partly Cloudy,280,2013-09-16 14:54:00
8:12 AM,57.2,57.2,100,29.88,0.5,NNW,5.8,-,N/A,Fog,Fog,330,2013-09-16 15:12:00
8:54 AM,59.0,57.9,96,29.86,0.5,NW,3.5,-,N/A,Fog,Fog,320,2013-09-16 15:54:00
9:01 AM,59.0,57.2,94,29.89,3.0,WNW,4.6,-,N/A,,Overcast,290,2013-09-16 16:01:00
9:54 AM,62.1,57.0,84,29.87,10.0,WNW,3.5,-,N/A,,Haze,290,2013-09-16 16:54:00
10:02 AM,62.6,57.2,82,29.89,10.0,Calm,Calm,-,N/A,,Scattered Clouds,0,2013-09-16 17:02:00
10:54 AM,68.0,57.0,68,29.87,10.0,Variable,5.8,-,N/A,,Scattered Clouds,0,2013-09-16 17:54:00
11:54 AM,70.0,57.9,65,29.86,10.0,SSW,5.8,-,N/A,,Clear,200,2013-09-16 18:54:00
12:54 PM,73.0,57.9,59,29.84,10.0,SSW,9.2,-,N/A,,Clear,200,2013-09-16 19:54:00
1:54 PM,77.0,57.9,52,29.81,10.0,SSW,11.5,-,N/A,,Clear,200,2013-09-16 20:54:00
2:54 PM,79.0,59.0,50,29.78,10.0,SSW,12.7,-,N/A,,Clear,210,2013-09-16 21:54:00
3:54 PM,78.1,57.9,50,29.77,10.0,SSW,16.1,-,N/A,,Clear,210,2013-09-16 22:54:00
4:54 PM,77.0,57.9,52,29.75,10.0,SSW,16.1,-,N/A,,Clear,200,2013-09-16 23:54:00
5:54 PM,78.1,54.0,43,29.74,10.0,SW,12.7,-,N/A,,Clear,220,2013-09-17 00:54:00
6:54 PM,71.1,55.0,57,29.74,10.0,SW,10.4,-,N/A,,Clear,220,2013-09-17 01:54:00
7:54 PM,64.9,53.1,65,29.74,10.0,SW,10.4,-,N/A,,Clear,220,2013-09-17 02:54:00
8:54 PM,63.0,54.0,72,29.76,10.0,SSW,10.4,-,N/A,,Clear,200,2013-09-17 03:54:00
9:54 PM,62.1,53.1,72,29.78,10.0,SW,9.2,-,N/A,,Clear,230,2013-09-17 04:54:00
10:54 PM,62.1,52.0,70,29.78,10.0,SW,10.4,-,N/A,,Clear,220,2013-09-17 05:54:00
11:54 PM,60.1,53.1,78,29.79,10.0,WSW,15.0,-,N/A,,Clear,240,2013-09-17 06:54:00